Regional Weather Roundup
Issued by NWS Northern Indiana

Home | Current Version | Previous Version | Text Only | Print | Product List | Glossary Off
Versions: 1 2 3 4 5 6 7 8 9 10 11 12 13 14 15 16 17 18 19 20 21 22 23 24 25 26 27 28 29 30 31 32 33 34 35 36 37 38 39 40 41 42 43 44 45 46 47 48 49 50

000
ASUS43 KIWX 232110
RWRIWX

KIWX WEATHER ROUNDUP
NATIONAL WEATHER SERVICE NORTHERN INDIANA
500 PM EDT WED MAY 23 2018

NOTE: "FAIR" INDICATES FEW OR NO CLOUDS BELOW 12,000 FEET WITH NO
SIGNIFICANT WEATHER AND/OR OBSTRUCTIONS TO VISIBILITY.

* THESE STATIONS ARE NOT UNDER NWS QUALITY CONTROL. THEY ALSO MAY NOT
  REPORT WEATHER SUCH AS PRECIPITATION OR FOG.

INZ001>027-232200-
NORTHERN INDIANA

CITY           SKY/WX    TMP DP  RH WIND       PRES   REMARKS
GARY*          MOSUNNY   68  57  68 NE7       30.18F
VALPARAISO     FAIR      80  59  48 N6        30.17F
LAPORTE*       FAIR      76  58  53 NW6       30.18F
KNOX*          FAIR      79  54  41 CALM      30.16F
SOUTH BEND     FAIR      77  57  50 NW7       30.18S
ELKHART*       FAIR      84  48  28 CALM      30.17F
GOSHEN         FAIR      79  56  45 E7        30.17F
ROCHESTER*     FAIR      82  50  32 N3        30.17F
WARSAW*        FAIR      77  54  44 CALM      30.17F
AUBURN*        FAIR      77  54  44 CALM      30.18F
FORT WAYNE     FAIR      79  54  41 NE3       30.18F
PERU/GRISSOM   FAIR      79  51  36 N7        30.16F
MARION*        FAIR      78  52  40 E5        30.17F

$$
INZ028>050-232200-
CENTRAL INDIANA

CITY           SKY/WX    TMP DP  RH WIND       PRES   REMARKS
LAFAYETTE      FAIR      79  54  41 NE8       30.15F
KOKOMO*        FAIR      79  53  40 NE7       30.17F
MUNCIE*        FAIR      82  49  31 NE8       30.16F
INDIANAPOLIS   FAIR      82  53  36 NE10      30.14F

$$
MIZ043>046-050>051-056>058-064>065-071>073-077>080-232200-
SOUTHWEST LOWER MICHIGAN

CITY           SKY/WX    TMP DP  RH WIND       PRES   REMARKS
BATTLE CREEK   FAIR      77  47  34 S3        30.18F
BENTON HARBOR  FAIR      69  54  58 NW7       30.19F
COLDWATER*     FAIR      78  42  28 CALM      30.17F
HILLSDALE*     FAIR      75  46  35 W3        30.18S
HOLLAND        FAIR      69  57  65 W8        30.19F
GRAND RAPIDS   PTSUNNY   78  53  41 W8        30.17F
KALAMAZOO      FAIR      79  50  36 CALM      30.17F
STURGIS*       FAIR      77  51  39 CALM      30.17F
THREE RIVERS*  FAIR      77  50  38 CALM      30.18S

$$
OHZ001>008-015>018-024>025-232200-
NORTHWEST OHIO

CITY           SKY/WX    TMP DP  RH WIND       PRES   REMARKS
DEFIANCE       FAIR      78  52  40 VRB5      30.17F
FINDLAY        FAIR      78  52  40 N9        30.16F
TOLEDO EXPRESS FAIR      78  48  34 CALM      30.16F
TOLEDO METCALF FAIR      78  48  34 CALM      30.17F
LIMA           FAIR      75  54  47 E8        30.18S

$$
AND FOR LAKE MICHIGAN COASTAL AND OPEN LAKE BUOY OBSERVATIONS

STATION/POSITION TEMP    WIND        PRES    VSBY  WAVE
                 AIR SEA DIR/SP/G                  HT/PER
                 (F)     (DEG/KT/KT) (MB)    (MI)  (FT/S)
CALUMET HARBOR    59      50/  5/  7 1021.5F
MICHIGAN CITY     56      30/  6/  7   N/A
BURNS HARBOR      60      70/  9/ 10 1022.7F
SAINT JOSEPH      61     360/  4/  5 1023.0
SOUTH LAKE BUOY   46 40  150/  4/  4 1022.8F         0
4 MI NW BRIDGMAN  57 57   50/  4/  6 1022.9          0
MICHIGAN CITY     55 57   60/  6/  6   N/A           0

$$
&&




USA.gov is the U.S. government's official web portal to all federal, state and local government web resources and services.